Regional Weather Roundup
Issued by NWS

Home | Current Version | Previous Version | Graphics & Text | Print | Product List | Glossary On
Versions: 1 2 3 4 5 6 7 8 9 10 11 12 13 14 15 16 17 18 19 20 21 22 23 24 25 26 27 28 29 30 31 32 33 34 35 36 37 38 39 40 41 42 43 44 45 46 47 48 49 50
000
ASUS43 KLMK 240102
RWRKY
KENTUCKY REGIONAL WEATHER ROUNDUP
NATIONAL WEATHER SERVICE LOUISVILLE KY
900 PM EDT THU MAR 23 2017

NOTE "FAIR" INDICATES FEW OR NO CLOUDS BELOW 12,000 FEET
WITH NO SIGNIFICANT WEATHER AND/OR OBSTRUCTIONS TO VISIBILITY.

KYZ001>023-026-027-061>063-070>075-240200-
WESTERN AND SOUTH CENTRAL KENTUCKY

CITY           SKY/WX    TMP DP  RH WIND       PRES   REMARKS
PADUCAH        CLEAR     54  42  64 SE9       30.13F
HENDERSON      PTCLDY    46  37  71 E3        30.17F
OWENSBORO      CLEAR     51  43  74 E6        30.19F
HOPKINSVILLE   NOT AVBL
BOWLING GREEN  CLEAR     54  43  66 SE7       30.21F
GLASGOW        NOT AVBL
$$

KYZ024-025-028>034-038-045-046-053-240200-
NORTH CENTRAL KENTUCKY

CITY           SKY/WX    TMP DP  RH WIND       PRES   REMARKS
LOUISVILLE/SDF MOCLDY    60  32  34 S7        30.23F
LOUISVILLE/LOU CLOUDY    61  35  37 S6        30.23F
FORT KNOX      CLOUDY    57  39  50 SE7       30.21F
$$

KYZ035>037-039>044-047>052-055>060-089>105-240200-
NORTHEAST KENTUCKY

CITY           SKY/WX    TMP DP  RH WIND       PRES   REMARKS
LEXINGTON      CLOUDY    58  33  39 S5        30.25F
COVINGTON      CLOUDY    55  32  41 S6        30.24F
FRANKFORT      CLOUDY    58  38  47 CALM      30.24S
$$

KYZ054-064>069-076>088-106>120-240200-
SOUTHEAST KENTUCKY

CITY           SKY/WX    TMP DP  RH WIND       PRES   REMARKS
JACKSON        CLOUDY    61  29  29 VRB3      30.29R
LONDON         CLEAR     60  34  37 S5        30.29R
SOMERSET       NOT AVBL
MIDDLESBORO    MOCLDY    56  39  53 CALM      30.31R
MONTICELLO     PTCLDY    57  40  52 VRB3      30.30R
$$




USA.gov is the U.S. government's official web portal to all federal, state and local government web resources and services.